TimePDT,TemperatureF,Dew PointF,Humidity,Sea Level PressureIn,VisibilityMPH,Wind Direction,Wind SpeedMPH,Gust SpeedMPH,PrecipitationIn,Events,Conditions,WindDirDegrees,DateUTC
12:56 AM,48.0,15.1,27,30.13,10.0,North,11.5,-,N/A,,Clear,10,2012-10-18 07:56:00
1:56 AM,46.0,15.1,29,30.14,10.0,North,10.4,-,N/A,,Clear,10,2012-10-18 08:56:00
3:56 AM,44.1,12.9,28,30.14,10.0,North,10.4,-,N/A,,Clear,360,2012-10-18 10:56:00
4:56 AM,42.1,15.1,34,30.15,10.0,North,6.9,-,N/A,,Clear,360,2012-10-18 11:56:00
5:56 AM,39.9,17.1,40,30.17,10.0,NNE,9.2,-,N/A,,Clear,20,2012-10-18 12:56:00
7:56 AM,44.1,15.1,31,30.22,10.0,North,8.1,-,N/A,,Clear,10,2012-10-18 14:56:00
9:56 AM,53.1,23.0,31,30.24,10.0,Calm,Calm,-,N/A,,Clear,0,2012-10-18 16:56:00
10:56 AM,59.0,18.0,20,30.22,10.0,Calm,Calm,-,N/A,,Clear,0,2012-10-18 17:56:00
11:56 AM,64.0,15.1,15,30.19,10.0,Calm,Calm,-,N/A,,Clear,0,2012-10-18 18:56:00
12:56 PM,68.0,10.0,11,30.16,10.0,Calm,Calm,-,N/A,,Clear,0,2012-10-18 19:56:00
1:56 PM,69.1,9.0,10,30.13,10.0,Variable,3.5,-,N/A,,Clear,0,2012-10-18 20:56:00
2:56 PM,71.1,10.0,9,30.10,10.0,SSE,5.8,-,N/A,,Clear,160,2012-10-18 21:56:00
3:56 PM,71.1,12.0,10,30.10,10.0,SE,3.5,-,N/A,,Clear,130,2012-10-18 22:56:00
4:56 PM,71.1,14.0,11,30.09,10.0,SSW,3.5,-,N/A,,Clear,200,2012-10-18 23:56:00
5:56 PM,66.9,19.0,16,30.11,10.0,SSE,3.5,-,N/A,,Clear,160,2012-10-19 00:56:00
6:56 PM,57.0,28.0,33,30.14,10.0,Calm,Calm,-,N/A,,Clear,0,2012-10-19 01:56:00
7:56 PM,55.0,25.0,31,30.14,10.0,North,6.9,-,N/A,,Clear,360,2012-10-19 02:56:00
8:56 PM,50.0,27.0,41,30.14,10.0,North,5.8,-,N/A,,Clear,360,2012-10-19 03:56:00
10:56 PM,48.0,21.9,36,30.12,10.0,North,11.5,-,N/A,,Clear,360,2012-10-19 05:56:00
11:56 PM,48.0,21.0,34,30.11,10.0,North,12.7,-,N/A,,Clear,10,2012-10-19 06:56:00